Regional Weather Roundup
Issued by NWS Northern Indiana

Home | Current Version | Previous Version | Graphics & Text | Print | Product List | Glossary On
Versions: 1 2 3 4 5 6 7 8 9 10 11 12 13 14 15 16 17 18 19 20 21 22 23 24 25 26 27 28 29 30 31 32 33 34 35 36 37 38 39 40 41 42 43 44 45 46 47 48 49 50
000
ASUS43 KIWX 251700
RWRIWX

KIWX WEATHER ROUNDUP
NATIONAL WEATHER SERVICE NORTHERN INDIANA
100 PM EDT SUN JUN 25 2017

NOTE: "FAIR" INDICATES FEW OR NO CLOUDS BELOW 12,000 FEET WITH NO
SIGNIFICANT WEATHER AND/OR OBSTRUCTIONS TO VISIBILITY.

* THESE STATIONS ARE NOT UNDER NWS QUALITY CONTROL. THEY ALSO MAY NOT
  REPORT WEATHER SUCH AS PRECIPITATION OR FOG.

INZ001>027-251800-
NORTHERN INDIANA

CITY           SKY/WX    TMP DP  RH WIND       PRES   REMARKS
GARY*          PTSUNNY   70  41  35 W18G31    30.12S
KNOX*          MOSUNNY   68  34  28 W13G18    30.12S
SOUTH BEND     MOSUNNY   67  47  48 NW17G26   30.11R
GOSHEN         MOSUNNY   68  44  42 W14G25    30.10S
MONTICELLO*    PTSUNNY   69  43  38 W14G24    30.14S
FORT WAYNE     PTSUNNY   67  46  47 W21       30.12S
PERU/GRISSOM   MOSUNNY   69  46  44 W16G26    30.13F

$$
INZ028>050-251800-
CENTRAL INDIANA

CITY           SKY/WX    TMP DP  RH WIND       PRES   REMARKS
LAFAYETTE      MOSUNNY   68  48  48 W16G23    30.14F
KOKOMO*        MOSUNNY   69  46  43 W24       30.14F
MUNCIE*        MOSUNNY   71  46  40 W15G24    30.14F
INDIANAPOLIS   MOSUNNY   72  48  42 W17       30.16S

$$
MIZ043>046-050>051-056>058-064>065-071>073-077>080-251800-
SOUTHWEST LOWER MICHIGAN

CITY           SKY/WX    TMP DP  RH WIND       PRES   REMARKS
BATTLE CREEK   PTSUNNY   67  47  48 W20G25    30.07R
BENTON HARBOR  SUNNY     69  48  47 W20       30.10R
COLDWATER*     PTSUNNY   68  44  41 W13G21    30.07S
HILLSDALE*     PTSUNNY   66  45  45 W14G23    30.06S
HOLLAND        SUNNY     66  52  60 W21G29    30.07S
GRAND RAPIDS   CLOUDY    64  50  60 W17G30    30.04R
KALAMAZOO      PTSUNNY   69  45  41 W13G25    30.08R
STURGIS*       PTSUNNY   68  47  46 W13G22    30.08S
THREE RIVERS*  PTSUNNY   69  45  42 W13G22    30.09R

$$
OHZ001>008-015>018-024>025-251800-
NORTHWEST OHIO

CITY           SKY/WX    TMP DP  RH WIND       PRES   REMARKS
DEFIANCE       PTSUNNY   67  45  45 NW15G22   30.09S
FINDLAY        SUNNY     72  43  35 W21G28    30.08S
TOLEDO EXPRESS PTSUNNY   67  46  47 W9G20     30.06S
TOLEDO METCALF PTSUNNY   71  47  42 W16G29    30.07R
LIMA           MOSUNNY   69  48  47 W17G26    30.11S

$$
AND FOR LAKE MICHIGAN COASTAL AND OPEN LAKE BUOY OBSERVATIONS

STATION/POSITION TEMP    WIND        PRES    VSBY  WAVE
                 AIR SEA DIR/SP/G                  HT/PER
                 (F)     (DEG/KT/KT) (MB)    (MI)  (FT/S)
CALUMET HARBOR    68     270/  6/ 14 1019.0F
MICHIGAN CITY     63     240/ 12/ 14   N/A
BURNS HARBOR      65     280/ 13/ 15 1020.0S
SOUTH LAKE BUOY   60 61  280/ 16/ 19 1018.0          3/ 5
4 MI NW BRIDGMAN  63 69  270/ 14/ 19 1019.5R         4/ 5
MICHIGAN CITY     64 66  280/ 12/ 16   N/A           3/ 4

$$
&&




USA.gov is the U.S. government's official web portal to all federal, state and local government web resources and services.